This is the latest recevied weather packets stored in our database for station/object EA1CUE-WX. If no packets are shown the sender has not sent any weather packets the latest 10 day(s).
| Time | Temp. | Humidity | Pressure | Rain* | Wind** | Luminosity | Snow |
|---|---|---|---|---|---|---|---|
| 1788017930 | 21.67° C | 16% | 1020.7 hPa | 0 mm | - | - | - |
| 1788017630 | 22.22° C | 19% | 1020.8 hPa | 0 mm | - | - | - |
| 1788017330 | 22.22° C | 23% | 1020.7 hPa | 0 mm | - | - | - |
| 1788017030 | 22.22° C | 25% | 1020.6 hPa | 0 mm | - | - | - |
| 1788016730 | 22.78° C | 23% | 1020.6 hPa | 0 mm | - | - | - |
| 1788016430 | 22.22° C | 25% | 1020.6 hPa | 0 mm | - | - | - |
| 1788016130 | 22.78° C | 27% | 1020.5 hPa | 0 mm | - | - | - |
| 1788015830 | 22.78° C | 31% | 1020.5 hPa | 0 mm | - | - | - |
| 1788015530 | 22.78° C | 33% | 1020.5 hPa | 0 mm | - | - | - |
| 1788015230 | 23.33° C | 34% | 1020.4 hPa | 0 mm | - | - | - |
| 1788014930 | 23.33° C | 36% | 1020.4 hPa | 0 mm | - | - | - |
| 1788014630 | 23.33° C | 35% | 1020.5 hPa | 0 mm | - | - | - |
| 1788014330 | 23.33° C | 37% | 1020.4 hPa | 0 mm | - | - | - |
| 1788014030 | 23.89° C | 38% | 1020.5 hPa | 0 mm | - | - | - |
| 1788013730 | 23.89° C | 38% | 1020.4 hPa | 0 mm | - | - | - |
| 1788013430 | 24.44° C | 37% | 1020.5 hPa | 0 mm | - | - | - |
| 1788013130 | 24.44° C | 35% | 1020.5 hPa | 0 mm | - | - | - |
| 1788012830 | 23.89° C | 33% | 1020.5 hPa | 0 mm | - | - | - |
| 1788012530 | 23.89° C | 34% | 1020.5 hPa | 0 mm | - | - | - |
| 1788012230 | 23.89° C | 36% | 1020.6 hPa | 0 mm | - | - | - |
| 1788011930 | 23.89° C | 34% | 1020.6 hPa | 0 mm | - | - | - |
| 1788011630 | 23.89° C | 36% | 1020.6 hPa | 0 mm | - | - | - |
| 1788011330 | 23.89° C | 34% | 1020.6 hPa | 0 mm | - | - | - |
| 1788011030 | 23.89° C | 33% | 1020.6 hPa | 0 mm | - | - | - |
| 1788010730 | 23.33° C | 31% | 1020.6 hPa | 0 mm | - | - | - |
* Rain latest hour (hover to see other rain measurements)
** Current wind speed in m/s (hover to see current wind gust speed)